Flag for India Weather past 2 weeks in Jaisalmer, Rajasthan, India

Now
66 °F

Passing clouds.


Feels Like: 66 °F
Forecast: 61 / 79 °F
Wind: 5 mph from Northeast

Location: Sukkur

Current Time: Feb 27, 2015 at 9:41:05 PM

Latest Report: Feb 27, 2015 at 8:30 PM


Visibility: 2 mi

Pressure: 29.89 "Hg

Humidity: 64%

Dew point: 54 °F

Location of JaisalmerLocation

Historic Weather in Jaisalmer — Graph

°F

Jaisalmer temperature yesterday

Maximum temperature yesterday: 77 °F (at 4:30 PM)
Minimum temperature yesterday: 46 °F (at 8:30 AM)
Average temperature yesterday: 61 °F

Past Weeks' High & Low Weather Summary

 TemperatureHumidityPressure
High91 °F (Feb 13, 3:30 PM)100% (Feb 18, 7:30 AM)30.07 "Hg (Feb 18, 7:30 AM)
Low46 °F (Feb 26, 8:30 AM)27% (Feb 25, 3:30 PM)29.65 "Hg (Feb 24, 4:30 PM)
Average71 °F68%29.85 "Hg
* Reported Feb 12 8:30 PM — Feb 27 8:30 PM, Jaisalmer, Weather by CustomWeather, © 2015

Note: Actual official high and low records may vary slightly from our data, if they occured in-between our weather recording intervals... More about our weather records

Advertising

Jaisalmer weather history for previous 24 hours

 ConditionsComfort  
Time TempWeatherWind HumidityBarometerVisibility
8:30 PM
Fri, Feb 27
66 °FPassing clouds.5 mph64%29.89 "Hg2 mi
7:30 PM70 °FPassing clouds.No wind50%29.86 "Hg2 mi
7:00 PM73 °FPassing clouds.No wind47%29.83 "Hg2 mi
6:30 PM72 °FScattered clouds.No wind50%29.83 "Hg2 mi
5:30 PM75 °FHaze.5 mph47%29.80 "Hg3 mi
3:30 PM77 °FHaze.5 mph42%29.83 "Hg3 mi
2:30 PM77 °FHaze.9 mph42%29.92 "Hg3 mi
2:00 PM75 °FHaze.7 mph47%29.92 "Hg3 mi
12:30 PM73 °FHaze.7 mph44%29.95 "Hg2 mi
11:30 AM70 °FHaze.7 mph50%29.95 "Hg2 mi
10:30 AM66 °FHaze.9 mph56%29.95 "Hg2 mi
10:00 AM59 °FHaze.7 mph59%29.92 "Hg2 mi
8:30 AM50 °FHaze.7 mph76%29.89 "Hg1 mi
7:30 AM48 °FHaze.5 mph82%29.83 "Hg1 mi
6:30 AM46 °FHaze.No wind82%29.80 "Hg1 mi
6:00 AM46 °FHaze.No wind82%29.80 "Hg1 mi
5:00 AM48 °FHaze.No wind82%29.83 "Hg2 mi
1:00 AM54 °FHaze.No wind67%29.83 "Hg2 mi
12:30 AM55 °FHaze.No wind67%29.83 "Hg2 mi
11:30 PM
Thu, Feb 26
55 °FHaze.No wind72%29.86 "Hg2 mi
10:30 PM57 °FHaze.No wind67%29.83 "Hg2 mi
9:30 PM59 °FHaze.No wind68%29.83 "Hg2 mi
Weather by CustomWeather, © 2015

See weather overviewHow to use our weather pages